owner,sensor,date,latitude,longitude,sea_surface_height_above_sea_level,qcFlag 
COMPS,ioos:station:USF.COMPS:SHP:1,2015-05-01T00:00:00Z,30.0600,-84.2910,-0.486,1111122 
COMPS,ioos:station:USF.COMPS:SHP:1,2015-05-01T00:06:00Z,30.0600,-84.2910,-0.482,1111122 
COMPS,ioos:station:USF.COMPS:SHP:1,2015-05-01T00:12:00Z,30.0600,-84.2910,-0.475,1111122 
COMPS,ioos:station:USF.COMPS:SHP:1,2015-05-01T00:18:00Z,30.0600,-84.2910,-0.467,1111122 
COMPS,ioos:station:USF.COMPS:SHP:1,2015-05-01T00:24:00Z,30.0600,-84.2910,-0.46,1111122 
COMPS,ioos:station:USF.COMPS:SHP:1,2015-05-01T00:30:00Z,30.0600,-84.2910,-0.457,1111122 
COMPS,ioos:station:USF.COMPS:SHP:1,2015-05-01T00:36:00Z,30.0600,-84.2910,-0.452,1111122 
COMPS,ioos:station:USF.COMPS:SHP:1,2015-05-01T00:42:00Z,30.0600,-84.2910,-0.451,1111122 
COMPS,ioos:station:USF.COMPS:SHP:1,2015-05-01T00:48:00Z,30.0600,-84.2910,-0.451,1111122 
COMPS,ioos:station:USF.COMPS:SHP:1,2015-05-01T00:54:00Z,30.0600,-84.2910,-0.445,1111122 
COMPS,ioos:station:USF.COMPS:SHP:1,2015-05-01T01:00:00Z,30.0600,-84.2910,-0.436,1111122 
COMPS,ioos:station:USF.COMPS:SHP:1,2015-05-01T01:06:00Z,30.0600,-84.2910,-0.43,1111122 
COMPS,ioos:station:USF.COMPS:SHP:1,2015-05-01T01:12:00Z,30.0600,-84.2910,-0.426,1111122 
COMPS,ioos:station:USF.COMPS:SHP:1,2015-05-01T01:18:00Z,30.0600,-84.2910,-0.416,1111122 
COMPS,ioos:station:USF.COMPS:SHP:1,2015-05-01T01:24:00Z,30.0600,-84.2910,-0.405,1111122 
COMPS,ioos:station:USF.COMPS:SHP:1,2015-05-01T01:30:00Z,30.0600,-84.2910,-0.395,1111122 
COMPS,ioos:station:USF.COMPS:SHP:1,2015-05-01T01:36:00Z,30.0600,-84.2910,-0.386,1111122 
COMPS,ioos:station:USF.COMPS:SHP:1,2015-05-01T01:42:00Z,30.0600,-84.2910,-0.375,1111122 
COMPS,ioos:station:USF.COMPS:SHP:1,2015-05-01T01:48:00Z,30.0600,-84.2910,-0.364,1111122 
COMPS,ioos:station:USF.COMPS:SHP:1,2015-05-01T01:54:00Z,30.0600,-84.2910,-0.349,1111122 
COMPS,ioos:station:USF.COMPS:SHP:1,2015-05-01T02:00:00Z,30.0600,-84.2910,-0.331,1111122 
COMPS,ioos:station:USF.COMPS:SHP:1,2015-05-01T02:06:00Z,30.0600,-84.2910,-0.317,1111122 
COMPS,ioos:station:USF.COMPS:SHP:1,2015-05-01T02:12:00Z,30.0600,-84.2910,-0.299,1111122 
COMPS,ioos:station:USF.COMPS:SHP:1,2015-05-01T02:18:00Z,30.0600,-84.2910,-0.281,1111122 
COMPS,ioos:station:USF.COMPS:SHP:1,2015-05-01T02:24:00Z,30.0600,-84.2910,-0.263,1111122 
COMPS,ioos:station:USF.COMPS:SHP:1,2015-05-01T02:30:00Z,30.0600,-84.2910,-0.241,1111122 
COMPS,ioos:station:USF.COMPS:SHP:1,2015-05-01T02:36:00Z,30.0600,-84.2910,-0.216,1111122 
COMPS,ioos:station:USF.COMPS:SHP:1,2015-05-01T02:42:00Z,30.0600,-84.2910,-0.198,1111122 
COMPS,ioos:station:USF.COMPS:SHP:1,2015-05-01T02:48:00Z,30.0600,-84.2910,-0.187,1111122 
COMPS,ioos:station:USF.COMPS:SHP:1,2015-05-01T02:54:00Z,30.0600,-84.2910,-0.169,1111122 
COMPS,ioos:station:USF.COMPS:SHP:1,2015-05-01T03:00:00Z,30.0600,-84.2910,-0.149,1111122 
COMPS,ioos:station:USF.COMPS:SHP:1,2015-05-01T03:06:00Z,30.0600,-84.2910,-0.132,1111122 
COMPS,ioos:station:USF.COMPS:SHP:1,2015-05-01T03:12:00Z,30.0600,-84.2910,-0.112,1111122 
COMPS,ioos:station:USF.COMPS:SHP:1,2015-05-01T03:18:00Z,30.0600,-84.2910,-0.094,1111122 
COMPS,ioos:station:USF.COMPS:SHP:1,2015-05-01T03:24:00Z,30.0600,-84.2910,-0.079,1111122 
COMPS,ioos:station:USF.COMPS:SHP:1,2015-05-01T03:30:00Z,30.0600,-84.2910,-0.066,1111122 
COMPS,ioos:station:USF.COMPS:SHP:1,2015-05-01T03:36:00Z,30.0600,-84.2910,-0.054,1111122 
COMPS,ioos:station:USF.COMPS:SHP:1,2015-05-01T03:42:00Z,30.0600,-84.2910,-0.043,1111122 
COMPS,ioos:station:USF.COMPS:SHP:1,2015-05-01T03:48:00Z,30.0600,-84.2910,-0.021,1111122 
COMPS,ioos:station:USF.COMPS:SHP:1,2015-05-01T03:54:00Z,30.0600,-84.2910,-0.001,1111122 
COMPS,ioos:station:USF.COMPS:SHP:1,2015-05-01T04:00:00Z,30.0600,-84.2910,0.01,1111122 
COMPS,ioos:station:USF.COMPS:SHP:1,2015-05-01T04:06:00Z,30.0600,-84.2910,0.023,1111122 
COMPS,ioos:station:USF.COMPS:SHP:1,2015-05-01T04:12:00Z,30.0600,-84.2910,0.037,1111122 
COMPS,ioos:station:USF.COMPS:SHP:1,2015-05-01T04:18:00Z,30.0600,-84.2910,0.049,1111122 
COMPS,ioos:station:USF.COMPS:SHP:1,2015-05-01T04:24:00Z,30.0600,-84.2910,0.059,1111122 
COMPS,ioos:station:USF.COMPS:SHP:1,2015-05-01T04:30:00Z,30.0600,-84.2910,0.072,1111122 
COMPS,ioos:station:USF.COMPS:SHP:1,2015-05-01T04:36:00Z,30.0600,-84.2910,0.088,1111122 
COMPS,ioos:station:USF.COMPS:SHP:1,2015-05-01T04:42:00Z,30.0600,-84.2910,0.104,1111122 
COMPS,ioos:station:USF.COMPS:SHP:1,2015-05-01T04:48:00Z,30.0600,-84.2910,0.114,1111122 
COMPS,ioos:station:USF.COMPS:SHP:1,2015-05-01T04:54:00Z,30.0600,-84.2910,0.125,1111122 
COMPS,ioos:station:USF.COMPS:SHP:1,2015-05-01T05:00:00Z,30.0600,-84.2910,0.144,1111122 
COMPS,ioos:station:USF.COMPS:SHP:1,2015-05-01T05:06:00Z,30.0600,-84.2910,0.161,1111122 
COMPS,ioos:station:USF.COMPS:SHP:1,2015-05-01T05:12:00Z,30.0600,-84.2910,0.175,1111122 
COMPS,ioos:station:USF.COMPS:SHP:1,2015-05-01T05:18:00Z,30.0600,-84.2910,0.182,1111122 
COMPS,ioos:station:USF.COMPS:SHP:1,2015-05-01T05:24:00Z,30.0600,-84.2910,0.187,1111122 
COMPS,ioos:station:USF.COMPS:SHP:1,2015-05-01T05:30:00Z,30.0600,-84.2910,0.194,1111122 
COMPS,ioos:station:USF.COMPS:SHP:1,2015-05-01T05:36:00Z,30.0600,-84.2910,0.201,1111122 
COMPS,ioos:station:USF.COMPS:SHP:1,2015-05-01T05:42:00Z,30.0600,-84.2910,0.203,1111122 
COMPS,ioos:station:USF.COMPS:SHP:1,2015-05-01T05:48:00Z,30.0600,-84.2910,0.201,1111122 
COMPS,ioos:station:USF.COMPS:SHP:1,2015-05-01T05:54:00Z,30.0600,-84.2910,0.198,1111122 
COMPS,ioos:station:USF.COMPS:SHP:1,2015-05-01T06:00:00Z,30.0600,-84.2910,0.202,1111122 
COMPS,ioos:station:USF.COMPS:SHP:1,2015-05-01T06:06:00Z,30.0600,-84.2910,0.209,1111122 
COMPS,ioos:station:USF.COMPS:SHP:1,2015-05-01T06:12:00Z,30.0600,-84.2910,0.216,1111122 
COMPS,ioos:station:USF.COMPS:SHP:1,2015-05-01T06:18:00Z,30.0600,-84.2910,0.211,1111122 
COMPS,ioos:station:USF.COMPS:SHP:1,2015-05-01T06:24:00Z,30.0600,-84.2910,0.2,1111122 
COMPS,ioos:station:USF.COMPS:SHP:1,2015-05-01T06:30:00Z,30.0600,-84.2910,0.19,1111122 
COMPS,ioos:station:USF.COMPS:SHP:1,2015-05-01T06:36:00Z,30.0600,-84.2910,0.189,1111122 
COMPS,ioos:station:USF.COMPS:SHP:1,2015-05-01T06:42:00Z,30.0600,-84.2910,0.187,1111122 
COMPS,ioos:station:USF.COMPS:SHP:1,2015-05-01T06:48:00Z,30.0600,-84.2910,0.179,1111122 
COMPS,ioos:station:USF.COMPS:SHP:1,2015-05-01T06:54:00Z,30.0600,-84.2910,0.166,1111122 
COMPS,ioos:station:USF.COMPS:SHP:1,2015-05-01T07:00:00Z,30.0600,-84.2910,0.159,1111122 
COMPS,ioos:station:USF.COMPS:SHP:1,2015-05-01T07:06:00Z,30.0600,-84.2910,0.156,1111122 
COMPS,ioos:station:USF.COMPS:SHP:1,2015-05-01T07:12:00Z,30.0600,-84.2910,0.142,1111122 
COMPS,ioos:station:USF.COMPS:SHP:1,2015-05-01T07:18:00Z,30.0600,-84.2910,0.127,1111122 
COMPS,ioos:station:USF.COMPS:SHP:1,2015-05-01T07:24:00Z,30.0600,-84.2910,0.117,1111122 
COMPS,ioos:station:USF.COMPS:SHP:1,2015-05-01T07:30:00Z,30.0600,-84.2910,0.111,1111122 
COMPS,ioos:station:USF.COMPS:SHP:1,2015-05-01T07:36:00Z,30.0600,-84.2910,0.104,1111122 
COMPS,ioos:station:USF.COMPS:SHP:1,2015-05-01T07:42:00Z,30.0600,-84.2910,0.087,1111122 
COMPS,ioos:station:USF.COMPS:SHP:1,2015-05-01T07:48:00Z,30.0600,-84.2910,0.067,1111122 
COMPS,ioos:station:USF.COMPS:SHP:1,2015-05-01T07:54:00Z,30.0600,-84.2910,0.05,1111122 
COMPS,ioos:station:USF.COMPS:SHP:1,2015-05-01T08:00:00Z,30.0600,-84.2910,0.031,1111122 
COMPS,ioos:station:USF.COMPS:SHP:1,2015-05-01T08:06:00Z,30.0600,-84.2910,0.013,1111122 
COMPS,ioos:station:USF.COMPS:SHP:1,2015-05-01T08:12:00Z,30.0600,-84.2910,-0.009,1111122 
COMPS,ioos:station:USF.COMPS:SHP:1,2015-05-01T08:18:00Z,30.0600,-84.2910,-0.027,1111122 
COMPS,ioos:station:USF.COMPS:SHP:1,2015-05-01T08:24:00Z,30.0600,-84.2910,-0.037,1111122 
COMPS,ioos:station:USF.COMPS:SHP:1,2015-05-01T08:30:00Z,30.0600,-84.2910,-0.049,1111122 
COMPS,ioos:station:USF.COMPS:SHP:1,2015-05-01T08:36:00Z,30.0600,-84.2910,-0.06,1111122 
COMPS,ioos:station:USF.COMPS:SHP:1,2015-05-01T08:42:00Z,30.0600,-84.2910,-0.075,1111122 
COMPS,ioos:station:USF.COMPS:SHP:1,2015-05-01T08:48:00Z,30.0600,-84.2910,-0.094,1111122 
COMPS,ioos:station:USF.COMPS:SHP:1,2015-05-01T08:54:00Z,30.0600,-84.2910,-0.113,1111122 
COMPS,ioos:station:USF.COMPS:SHP:1,2015-05-01T09:00:00Z,30.0600,-84.2910,-0.128,1111122 
COMPS,ioos:station:USF.COMPS:SHP:1,2015-05-01T09:06:00Z,30.0600,-84.2910,-0.141,1111122 
COMPS,ioos:station:USF.COMPS:SHP:1,2015-05-01T09:12:00Z,30.0600,-84.2910,-0.154,1111122 
COMPS,ioos:station:USF.COMPS:SHP:1,2015-05-01T09:18:00Z,30.0600,-84.2910,-0.173,1111122 
COMPS,ioos:station:USF.COMPS:SHP:1,2015-05-01T09:24:00Z,30.0600,-84.2910,-0.192,1111122 
COMPS,ioos:station:USF.COMPS:SHP:1,2015-05-01T09:30:00Z,30.0600,-84.2910,-0.205,1111122 
COMPS,ioos:station:USF.COMPS:SHP:1,2015-05-01T09:36:00Z,30.0600,-84.2910,-0.217,1111122 
COMPS,ioos:station:USF.COMPS:SHP:1,2015-05-01T09:42:00Z,30.0600,-84.2910,-0.229,1111122 
COMPS,ioos:station:USF.COMPS:SHP:1,2015-05-01T09:48:00Z,30.0600,-84.2910,-0.241,1111122 
COMPS,ioos:station:USF.COMPS:SHP:1,2015-05-01T09:54:00Z,30.0600,-84.2910,-0.255,1111122 
COMPS,ioos:station:USF.COMPS:SHP:1,2015-05-01T10:00:00Z,30.0600,-84.2910,-0.263,1111122 
COMPS,ioos:station:USF.COMPS:SHP:1,2015-05-01T10:06:00Z,30.0600,-84.2910,-0.273,1111122 
COMPS,ioos:station:USF.COMPS:SHP:1,2015-05-01T10:12:00Z,30.0600,-84.2910,-0.288,1111122 
COMPS,ioos:station:USF.COMPS:SHP:1,2015-05-01T10:18:00Z,30.0600,-84.2910,-0.301,1111122 
COMPS,ioos:station:USF.COMPS:SHP:1,2015-05-01T10:24:00Z,30.0600,-84.2910,-0.305,1111122 
COMPS,ioos:station:USF.COMPS:SHP:1,2015-05-01T10:30:00Z,30.0600,-84.2910,-0.305,1111122 
COMPS,ioos:station:USF.COMPS:SHP:1,2015-05-01T10:36:00Z,30.0600,-84.2910,-0.307,1111122 
COMPS,ioos:station:USF.COMPS:SHP:1,2015-05-01T10:42:00Z,30.0600,-84.2910,-0.311,1111122 
COMPS,ioos:station:USF.COMPS:SHP:1,2015-05-01T10:48:00Z,30.0600,-84.2910,-0.318,1111122 
COMPS,ioos:station:USF.COMPS:SHP:1,2015-05-01T10:54:00Z,30.0600,-84.2910,-0.328,1111122 
COMPS,ioos:station:USF.COMPS:SHP:1,2015-05-01T11:00:00Z,30.0600,-84.2910,-0.336,1111122 
COMPS,ioos:station:USF.COMPS:SHP:1,2015-05-01T11:06:00Z,30.0600,-84.2910,-0.341,1111122 
COMPS,ioos:station:USF.COMPS:SHP:1,2015-05-01T11:12:00Z,30.0600,-84.2910,-0.342,1111122 
COMPS,ioos:station:USF.COMPS:SHP:1,2015-05-01T11:18:00Z,30.0600,-84.2910,-0.343,1111122 
COMPS,ioos:station:USF.COMPS:SHP:1,2015-05-01T11:24:00Z,30.0600,-84.2910,-0.347,1111122 
COMPS,ioos:station:USF.COMPS:SHP:1,2015-05-01T11:30:00Z,30.0600,-84.2910,-0.352,1111122 
COMPS,ioos:station:USF.COMPS:SHP:1,2015-05-01T11:36:00Z,30.0600,-84.2910,-0.356,1111122 
COMPS,ioos:station:USF.COMPS:SHP:1,2015-05-01T11:42:00Z,30.0600,-84.2910,-0.362,1111122 
COMPS,ioos:station:USF.COMPS:SHP:1,2015-05-01T11:48:00Z,30.0600,-84.2910,-0.368,1111122 
COMPS,ioos:station:USF.COMPS:SHP:1,2015-05-01T11:54:00Z,30.0600,-84.2910,-0.369,1111122 
COMPS,ioos:station:USF.COMPS:SHP:1,2015-05-01T12:00:00Z,30.0600,-84.2910,-0.368,1111122 
COMPS,ioos:station:USF.COMPS:SHP:1,2015-05-01T12:06:00Z,30.0600,-84.2910,-0.36,1111122 
COMPS,ioos:station:USF.COMPS:SHP:1,2015-05-01T12:12:00Z,30.0600,-84.2910,-0.353,1111122 
COMPS,ioos:station:USF.COMPS:SHP:1,2015-05-01T12:18:00Z,30.0600,-84.2910,-0.35,1111122 
COMPS,ioos:station:USF.COMPS:SHP:1,2015-05-01T12:24:00Z,30.0600,-84.2910,-0.351,1111122 
COMPS,ioos:station:USF.COMPS:SHP:1,2015-05-01T12:30:00Z,30.0600,-84.2910,-0.349,1111122 
COMPS,ioos:station:USF.COMPS:SHP:1,2015-05-01T12:36:00Z,30.0600,-84.2910,-0.342,1111122 
COMPS,ioos:station:USF.COMPS:SHP:1,2015-05-01T12:42:00Z,30.0600,-84.2910,-0.335,1111122 
COMPS,ioos:station:USF.COMPS:SHP:1,2015-05-01T12:48:00Z,30.0600,-84.2910,-0.328,1111122 
COMPS,ioos:station:USF.COMPS:SHP:1,2015-05-01T12:54:00Z,30.0600,-84.2910,-0.319,1111122 
COMPS,ioos:station:USF.COMPS:SHP:1,2015-05-01T13:00:00Z,30.0600,-84.2910,-0.309,1111122 
COMPS,ioos:station:USF.COMPS:SHP:1,2015-05-01T13:06:00Z,30.0600,-84.2910,-0.297,1111122 
COMPS,ioos:station:USF.COMPS:SHP:1,2015-05-01T13:12:00Z,30.0600,-84.2910,-0.282,1111122 
COMPS,ioos:station:USF.COMPS:SHP:1,2015-05-01T13:18:00Z,30.0600,-84.2910,-0.268,1111122 
COMPS,ioos:station:USF.COMPS:SHP:1,2015-05-01T13:24:00Z,30.0600,-84.2910,-0.256,1111122 
COMPS,ioos:station:USF.COMPS:SHP:1,2015-05-01T13:30:00Z,30.0600,-84.2910,-0.246,1111122 
COMPS,ioos:station:USF.COMPS:SHP:1,2015-05-01T13:36:00Z,30.0600,-84.2910,-0.236,1111122 
COMPS,ioos:station:USF.COMPS:SHP:1,2015-05-01T13:42:00Z,30.0600,-84.2910,-0.22,1111122 
COMPS,ioos:station:USF.COMPS:SHP:1,2015-05-01T13:48:00Z,30.0600,-84.2910,-0.194,1111122 
COMPS,ioos:station:USF.COMPS:SHP:1,2015-05-01T13:54:00Z,30.0600,-84.2910,-0.172,1111122 
COMPS,ioos:station:USF.COMPS:SHP:1,2015-05-01T14:00:00Z,30.0600,-84.2910,-0.154,1111122 
COMPS,ioos:station:USF.COMPS:SHP:1,2015-05-01T14:06:00Z,30.0600,-84.2910,-0.138,1111122 
COMPS,ioos:station:USF.COMPS:SHP:1,2015-05-01T14:12:00Z,30.0600,-84.2910,-0.124,1111122 
COMPS,ioos:station:USF.COMPS:SHP:1,2015-05-01T14:18:00Z,30.0600,-84.2910,-0.11,1111122 
COMPS,ioos:station:USF.COMPS:SHP:1,2015-05-01T14:24:00Z,30.0600,-84.2910,-0.094,1111122 
COMPS,ioos:station:USF.COMPS:SHP:1,2015-05-01T14:30:00Z,30.0600,-84.2910,-0.073,1111122 
COMPS,ioos:station:USF.COMPS:SHP:1,2015-05-01T14:36:00Z,30.0600,-84.2910,-0.05,1111122 
COMPS,ioos:station:USF.COMPS:SHP:1,2015-05-01T14:42:00Z,30.0600,-84.2910,-0.03,1111122 
COMPS,ioos:station:USF.COMPS:SHP:1,2015-05-01T14:48:00Z,30.0600,-84.2910,-0.01,1111122 
COMPS,ioos:station:USF.COMPS:SHP:1,2015-05-01T14:54:00Z,30.0600,-84.2910,0.01,1111122 
COMPS,ioos:station:USF.COMPS:SHP:1,2015-05-01T15:00:00Z,30.0600,-84.2910,0.027,1111122 
COMPS,ioos:station:USF.COMPS:SHP:1,2015-05-01T15:06:00Z,30.0600,-84.2910,0.041,1111122 
COMPS,ioos:station:USF.COMPS:SHP:1,2015-05-01T15:12:00Z,30.0600,-84.2910,0.059,1111122 
COMPS,ioos:station:USF.COMPS:SHP:1,2015-05-01T15:18:00Z,30.0600,-84.2910,0.083,1111122 
COMPS,ioos:station:USF.COMPS:SHP:1,2015-05-01T15:24:00Z,30.0600,-84.2910,0.105,1111122 
COMPS,ioos:station:USF.COMPS:SHP:1,2015-05-01T15:30:00Z,30.0600,-84.2910,0.127,1111122 
COMPS,ioos:station:USF.COMPS:SHP:1,2015-05-01T15:36:00Z,30.0600,-84.2910,0.147,1111122 
COMPS,ioos:station:USF.COMPS:SHP:1,2015-05-01T15:42:00Z,30.0600,-84.2910,0.167,1111122 
COMPS,ioos:station:USF.COMPS:SHP:1,2015-05-01T15:48:00Z,30.0600,-84.2910,0.189,1111122 
COMPS,ioos:station:USF.COMPS:SHP:1,2015-05-01T15:54:00Z,30.0600,-84.2910,0.207,1111122 
COMPS,ioos:station:USF.COMPS:SHP:1,2015-05-01T16:00:00Z,30.0600,-84.2910,0.228,1111122 
COMPS,ioos:station:USF.COMPS:SHP:1,2015-05-01T16:06:00Z,30.0600,-84.2910,0.25,1111122 
COMPS,ioos:station:USF.COMPS:SHP:1,2015-05-01T16:12:00Z,30.0600,-84.2910,0.264,1111122 
COMPS,ioos:station:USF.COMPS:SHP:1,2015-05-01T16:18:00Z,30.0600,-84.2910,0.274,1111122 
COMPS,ioos:station:USF.COMPS:SHP:1,2015-05-01T16:24:00Z,30.0600,-84.2910,0.291,1111122 
COMPS,ioos:station:USF.COMPS:SHP:1,2015-05-01T16:30:00Z,30.0600,-84.2910,0.304,1111122 
COMPS,ioos:station:USF.COMPS:SHP:1,2015-05-01T16:36:00Z,30.0600,-84.2910,0.32,1111122 
COMPS,ioos:station:USF.COMPS:SHP:1,2015-05-01T16:42:00Z,30.0600,-84.2910,0.337,1111122 
COMPS,ioos:station:USF.COMPS:SHP:1,2015-05-01T16:48:00Z,30.0600,-84.2910,0.348,1111122 
COMPS,ioos:station:USF.COMPS:SHP:1,2015-05-01T16:54:00Z,30.0600,-84.2910,0.357,1111122 
COMPS,ioos:station:USF.COMPS:SHP:1,2015-05-01T17:00:00Z,30.0600,-84.2910,0.369,1111122 
COMPS,ioos:station:USF.COMPS:SHP:1,2015-05-01T17:06:00Z,30.0600,-84.2910,0.379,1111122 
COMPS,ioos:station:USF.COMPS:SHP:1,2015-05-01T17:12:00Z,30.0600,-84.2910,0.384,1111122 
COMPS,ioos:station:USF.COMPS:SHP:1,2015-05-01T17:18:00Z,30.0600,-84.2910,0.391,1111122 
COMPS,ioos:station:USF.COMPS:SHP:1,2015-05-01T17:24:00Z,30.0600,-84.2910,0.402,1111122 
COMPS,ioos:station:USF.COMPS:SHP:1,2015-05-01T17:30:00Z,30.0600,-84.2910,0.407,1111122 
COMPS,ioos:station:USF.COMPS:SHP:1,2015-05-01T17:36:00Z,30.0600,-84.2910,0.408,1111122 
COMPS,ioos:station:USF.COMPS:SHP:1,2015-05-01T17:42:00Z,30.0600,-84.2910,0.417,1111122 
COMPS,ioos:station:USF.COMPS:SHP:1,2015-05-01T17:48:00Z,30.0600,-84.2910,0.422,1111122 
COMPS,ioos:station:USF.COMPS:SHP:1,2015-05-01T17:54:00Z,30.0600,-84.2910,0.411,1111122 
COMPS,ioos:station:USF.COMPS:SHP:1,2015-05-01T18:00:00Z,30.0600,-84.2910,0.403,1111122 
COMPS,ioos:station:USF.COMPS:SHP:1,2015-05-01T18:06:00Z,30.0600,-84.2910,0.411,1111122 
COMPS,ioos:station:USF.COMPS:SHP:1,2015-05-01T18:12:00Z,30.0600,-84.2910,0.405,1111122 
COMPS,ioos:station:USF.COMPS:SHP:1,2015-05-01T18:18:00Z,30.0600,-84.2910,0.403,1111122 
COMPS,ioos:station:USF.COMPS:SHP:1,2015-05-01T18:24:00Z,30.0600,-84.2910,0.402,1111122 
COMPS,ioos:station:USF.COMPS:SHP:1,2015-05-01T18:30:00Z,30.0600,-84.2910,0.385,1111122 
COMPS,ioos:station:USF.COMPS:SHP:1,2015-05-01T18:36:00Z,30.0600,-84.2910,0.373,1111122 
COMPS,ioos:station:USF.COMPS:SHP:1,2015-05-01T18:42:00Z,30.0600,-84.2910,0.367,1111122 
COMPS,ioos:station:USF.COMPS:SHP:1,2015-05-01T18:48:00Z,30.0600,-84.2910,0.357,1111122 
COMPS,ioos:station:USF.COMPS:SHP:1,2015-05-01T18:54:00Z,30.0600,-84.2910,0.342,1111122 
COMPS,ioos:station:USF.COMPS:SHP:1,2015-05-01T19:00:00Z,30.0600,-84.2910,0.332,1111122 
COMPS,ioos:station:USF.COMPS:SHP:1,2015-05-01T19:06:00Z,30.0600,-84.2910,0.313,1111122 
COMPS,ioos:station:USF.COMPS:SHP:1,2015-05-01T19:12:00Z,30.0600,-84.2910,0.285,1111122 
COMPS,ioos:station:USF.COMPS:SHP:1,2015-05-01T19:18:00Z,30.0600,-84.2910,0.271,1111122 
COMPS,ioos:station:USF.COMPS:SHP:1,2015-05-01T19:24:00Z,30.0600,-84.2910,0.26,1111122 
COMPS,ioos:station:USF.COMPS:SHP:1,2015-05-01T19:30:00Z,30.0600,-84.2910,0.242,1111122 
COMPS,ioos:station:USF.COMPS:SHP:1,2015-05-01T19:36:00Z,30.0600,-84.2910,0.216,1111122 
COMPS,ioos:station:USF.COMPS:SHP:1,2015-05-01T19:42:00Z,30.0600,-84.2910,0.192,1111122 
COMPS,ioos:station:USF.COMPS:SHP:1,2015-05-01T19:48:00Z,30.0600,-84.2910,0.176,1111122 
COMPS,ioos:station:USF.COMPS:SHP:1,2015-05-01T19:54:00Z,30.0600,-84.2910,0.144,1111122 
COMPS,ioos:station:USF.COMPS:SHP:1,2015-05-01T20:00:00Z,30.0600,-84.2910,0.121,1111122 
COMPS,ioos:station:USF.COMPS:SHP:1,2015-05-01T20:06:00Z,30.0600,-84.2910,0.104,1111122 
COMPS,ioos:station:USF.COMPS:SHP:1,2015-05-01T20:12:00Z,30.0600,-84.2910,0.083,1111122 
COMPS,ioos:station:USF.COMPS:SHP:1,2015-05-01T20:18:00Z,30.0600,-84.2910,0.062,1111122 
COMPS,ioos:station:USF.COMPS:SHP:1,2015-05-01T20:24:00Z,30.0600,-84.2910,0.043,1111122 
COMPS,ioos:station:USF.COMPS:SHP:1,2015-05-01T20:30:00Z,30.0600,-84.2910,0.019,1111122 
COMPS,ioos:station:USF.COMPS:SHP:1,2015-05-01T20:36:00Z,30.0600,-84.2910,-0.01,1111122 
COMPS,ioos:station:USF.COMPS:SHP:1,2015-05-01T20:42:00Z,30.0600,-84.2910,-0.033,1111122 
COMPS,ioos:station:USF.COMPS:SHP:1,2015-05-01T20:48:00Z,30.0600,-84.2910,-0.053,1111122 
COMPS,ioos:station:USF.COMPS:SHP:1,2015-05-01T20:54:00Z,30.0600,-84.2910,-0.075,1111122 
COMPS,ioos:station:USF.COMPS:SHP:1,2015-05-01T21:00:00Z,30.0600,-84.2910,-0.099,1111122 
COMPS,ioos:station:USF.COMPS:SHP:1,2015-05-01T21:06:00Z,30.0600,-84.2910,-0.119,1111122 
COMPS,ioos:station:USF.COMPS:SHP:1,2015-05-01T21:12:00Z,30.0600,-84.2910,-0.139,1111122 
COMPS,ioos:station:USF.COMPS:SHP:1,2015-05-01T21:18:00Z,30.0600,-84.2910,-0.162,1111122 
COMPS,ioos:station:USF.COMPS:SHP:1,2015-05-01T21:24:00Z,30.0600,-84.2910,-0.186,1111122 
COMPS,ioos:station:USF.COMPS:SHP:1,2015-05-01T21:30:00Z,30.0600,-84.2910,-0.205,1111122 
COMPS,ioos:station:USF.COMPS:SHP:1,2015-05-01T21:36:00Z,30.0600,-84.2910,-0.222,1111122 
COMPS,ioos:station:USF.COMPS:SHP:1,2015-05-01T21:42:00Z,30.0600,-84.2910,-0.246,1111122 
COMPS,ioos:station:USF.COMPS:SHP:1,2015-05-01T21:48:00Z,30.0600,-84.2910,-0.269,1111122 
COMPS,ioos:station:USF.COMPS:SHP:1,2015-05-01T21:54:00Z,30.0600,-84.2910,-0.286,1111122 
COMPS,ioos:station:USF.COMPS:SHP:1,2015-05-01T22:00:00Z,30.0600,-84.2910,-0.303,1111122 
COMPS,ioos:station:USF.COMPS:SHP:1,2015-05-01T22:06:00Z,30.0600,-84.2910,-0.323,1111122 
COMPS,ioos:station:USF.COMPS:SHP:1,2015-05-01T22:12:00Z,30.0600,-84.2910,-0.342,1111122 
COMPS,ioos:station:USF.COMPS:SHP:1,2015-05-01T22:18:00Z,30.0600,-84.2910,-0.356,1111122 
COMPS,ioos:station:USF.COMPS:SHP:1,2015-05-01T22:24:00Z,30.0600,-84.2910,-0.366,1111122 
COMPS,ioos:station:USF.COMPS:SHP:1,2015-05-01T22:30:00Z,30.0600,-84.2910,-0.38,1111122 
COMPS,ioos:station:USF.COMPS:SHP:1,2015-05-01T22:36:00Z,30.0600,-84.2910,-0.394,1111122 
COMPS,ioos:station:USF.COMPS:SHP:1,2015-05-01T22:42:00Z,30.0600,-84.2910,-0.409,1111122 
COMPS,ioos:station:USF.COMPS:SHP:1,2015-05-01T22:48:00Z,30.0600,-84.2910,-0.423,1111122 
COMPS,ioos:station:USF.COMPS:SHP:1,2015-05-01T22:54:00Z,30.0600,-84.2910,-0.437,1111122 
COMPS,ioos:station:USF.COMPS:SHP:1,2015-05-01T23:00:00Z,30.0600,-84.2910,-0.45,1111122 
COMPS,ioos:station:USF.COMPS:SHP:1,2015-05-01T23:06:00Z,30.0600,-84.2910,-0.463,1111122 
COMPS,ioos:station:USF.COMPS:SHP:1,2015-05-01T23:12:00Z,30.0600,-84.2910,-0.475,1111122 
COMPS,ioos:station:USF.COMPS:SHP:1,2015-05-01T23:18:00Z,30.0600,-84.2910,-0.487,1111122 
COMPS,ioos:station:USF.COMPS:SHP:1,2015-05-01T23:24:00Z,30.0600,-84.2910,-0.5,1111122 
COMPS,ioos:station:USF.COMPS:SHP:1,2015-05-01T23:30:00Z,30.0600,-84.2910,-0.514,1111122 
COMPS,ioos:station:USF.COMPS:SHP:1,2015-05-01T23:36:00Z,30.0600,-84.2910,-0.529,1111122 
COMPS,ioos:station:USF.COMPS:SHP:1,2015-05-01T23:42:00Z,30.0600,-84.2910,-0.542,1111122 
COMPS,ioos:station:USF.COMPS:SHP:1,2015-05-01T23:48:00Z,30.0600,-84.2910,-0.553,1111122 
COMPS,ioos:station:USF.COMPS:SHP:1,2015-05-01T23:54:00Z,30.0600,-84.2910,-0.563,1111122 
COMPS,ioos:station:USF.COMPS:SHP:1,2015-05-02T00:00:00Z,30.0600,-84.2910,-0.575,1111122 
COMPS,ioos:station:USF.COMPS:SHP:1,2015-05-02T00:06:00Z,30.0600,-84.2910,-0.585,1111122 
COMPS,ioos:station:USF.COMPS:SHP:1,2015-05-02T00:12:00Z,30.0600,-84.2910,-0.591,1111122 
COMPS,ioos:station:USF.COMPS:SHP:1,2015-05-02T00:18:00Z,30.0600,-84.2910,-0.591,1111122 
COMPS,ioos:station:USF.COMPS:SHP:1,2015-05-02T00:24:00Z,30.0600,-84.2910,-0.588,1111122 
COMPS,ioos:station:USF.COMPS:SHP:1,2015-05-02T00:30:00Z,30.0600,-84.2910,-0.585,1111122 
COMPS,ioos:station:USF.COMPS:SHP:1,2015-05-02T00:36:00Z,30.0600,-84.2910,-0.585,1111122 
COMPS,ioos:station:USF.COMPS:SHP:1,2015-05-02T00:42:00Z,30.0600,-84.2910,-0.584,1111122 
COMPS,ioos:station:USF.COMPS:SHP:1,2015-05-02T00:48:00Z,30.0600,-84.2910,-0.584,1111122 
COMPS,ioos:station:USF.COMPS:SHP:1,2015-05-02T00:54:00Z,30.0600,-84.2910,-0.582,1111122 
COMPS,ioos:station:USF.COMPS:SHP:1,2015-05-02T01:00:00Z,30.0600,-84.2910,-0.578,1111122 
COMPS,ioos:station:USF.COMPS:SHP:1,2015-05-02T01:06:00Z,30.0600,-84.2910,-0.573,1111122 
COMPS,ioos:station:USF.COMPS:SHP:1,2015-05-02T01:12:00Z,30.0600,-84.2910,-0.564,1111122 
COMPS,ioos:station:USF.COMPS:SHP:1,2015-05-02T01:18:00Z,30.0600,-84.2910,-0.553,1111122 
COMPS,ioos:station:USF.COMPS:SHP:1,2015-05-02T01:24:00Z,30.0600,-84.2910,-0.544,1111122 
COMPS,ioos:station:USF.COMPS:SHP:1,2015-05-02T01:30:00Z,30.0600,-84.2910,-0.535,1111122 
COMPS,ioos:station:USF.COMPS:SHP:1,2015-05-02T01:36:00Z,30.0600,-84.2910,-0.524,1111122 
COMPS,ioos:station:USF.COMPS:SHP:1,2015-05-02T01:42:00Z,30.0600,-84.2910,-0.512,1111122 
COMPS,ioos:station:USF.COMPS:SHP:1,2015-05-02T01:48:00Z,30.0600,-84.2910,-0.502,1111122 
COMPS,ioos:station:USF.COMPS:SHP:1,2015-05-02T01:54:00Z,30.0600,-84.2910,-0.492,1111122 
COMPS,ioos:station:USF.COMPS:SHP:1,2015-05-02T02:00:00Z,30.0600,-84.2910,-0.481,1111122 
COMPS,ioos:station:USF.COMPS:SHP:1,2015-05-02T02:06:00Z,30.0600,-84.2910,-0.468,1111122 
COMPS,ioos:station:USF.COMPS:SHP:1,2015-05-02T02:12:00Z,30.0600,-84.2910,-0.453,1111122 
COMPS,ioos:station:USF.COMPS:SHP:1,2015-05-02T02:18:00Z,30.0600,-84.2910,-0.437,1111122 
COMPS,ioos:station:USF.COMPS:SHP:1,2015-05-02T02:24:00Z,30.0600,-84.2910,-0.421,1111122 
COMPS,ioos:station:USF.COMPS:SHP:1,2015-05-02T02:30:00Z,30.0600,-84.2910,-0.402,1111122 
COMPS,ioos:station:USF.COMPS:SHP:1,2015-05-02T02:36:00Z,30.0600,-84.2910,-0.38,1111122 
COMPS,ioos:station:USF.COMPS:SHP:1,2015-05-02T02:42:00Z,30.0600,-84.2910,-0.359,1111122 
COMPS,ioos:station:USF.COMPS:SHP:1,2015-05-02T02:48:00Z,30.0600,-84.2910,-0.337,1111122 
COMPS,ioos:station:USF.COMPS:SHP:1,2015-05-02T02:54:00Z,30.0600,-84.2910,-0.316,1111122 